< < Back
Terminal Aerodrome Forecast


Current Version              Previous Versions:   1  2  3  4  5  6  7  8  9  

Terminal Aerodrome Forecast

020
FTUS44 KHUN 250528
TAFHSV
TAF
KHSV 250528Z 2506/2606 VRB03KT P6SM FEW250
     FM251800 27005KT P6SM FEW050
     FM260100 VRB03KT P6SM FEW250=

Latest METAR

358
SAUS80 KWBC 251300 RRA
MTRHSV
METAR KHSV 251253Z 00000KT 7SM CLR 09/07 A3012 RMK AO2 SLP197
T00890067


USA.gov is the U.S. government's official web portal to all federal, state and local government web resources and services.